Farrell Flat Airport

Jump to: basic info | weather | frequencies | runways | comments

Related pages: nearby airports | nearby navaids | notams | map

Basic information (top)

Codes: YFFT
Location: lon -33.833302, lat 138.766998
Status: small_airport

Weather (top)

Current conditions for Adelaide International Airport 68nm (125km) S (rec'd 2015/03/29 07:00Z):

YPAD 290700Z 24005KT CAVOK 24/07 Q1021 NOSIG

Airport forecast for Adelaide International Airport 68nm (125km) S (rec'd 2015/03/29 06:33Z):

TAF YPAD 290507Z 2906/3012 22008KT CAVOK 
     FM291000 17005KT CAVOK 
     FM291300 06005KT CAVOK 
     FM300200 24010KT CAVOK 
     FM301000 13005KT CAVOK

Frequencies (top)

Verify before use: may be inaccurate or out of date.

CTAF: 122.4 MHz (CTAF)
MISC: 114.2 MHz (MISC)
MISC: 119.8 MHz (MISC)
MISC: 121.3 MHz (MISC)

Runways (top)

03/21: 1,443 ft (440 m) — grass — not lighted

14/32: 2,486 ft (758 m) — grass — not lighted

Latest comments (top)

No comments yet for Farrell Flat Airport

More... (top)

See also NOTAMs and nearby airports and navaids, or visit the Farrell Flat Airport page at the main OurAirports website..